Lapse_Rate
7.6 7.8 8.2 8.0 7.6 7.5 7.4 7.6 7.4 7.7 7.1 6.4 7.0 7.2 6.7 6.3 6.5 6.5 6.6 7.4 7.4 7.4 7.3 7.5 5.8 6.2 5.9 6.3 6.0 6.3 5.5 5.7 6.2
7.1 7.4 7.7 7.7 7.6 7.7 7.2 7.5 7.3 7.1 6.9 6.7 7.0 7.4 7.2 6.4 6.1 6.2 6.4 7.1 6.6 7.5 6.4 7.2 6.1 6.0 5.9 6.0 6.5 6.4 6.2 6.1 6.6
7.0 7.3 7.4 7.8 7.8 7.7 7.7 8.0 7.9 7.7 7.4 6.9 7.5 7.5 7.5 7.4 6.6 6.2 6.5 6.8 6.4 6.5 7.1 6.9 6.1 6.2 6.0 6.3 6.0 7.0 6.5 6.2 7.4
7.0 7.1 7.3 7.7 7.7 7.9 7.8 8.1 8.0 8.1 7.8 7.3 7.9 8.1 8.0 7.5 7.1 6.0 6.3 7.3 7.1 6.4 6.6 6.2 5.8 5.9 6.0 5.8 6.5 6.9 5.8 6.2 6.6
7.1 6.5 6.8 7.4 7.7 7.9 7.8 7.9 8.1 8.2 8.3 8.4 8.2 8.2 7.9 7.1 6.2 6.5 6.1 6.4 7.1 6.6 6.6 6.1 5.7 5.7 5.6 5.9 6.7 6.1 5.3 5.4 6.9
6.4 7.2 6.4 7.0 7.8 7.4 7.6 7.8 7.7 8.3 8.4 9.0 8.9 8.4 8.3 7.7 7.3 6.7 6.1 4.9 6.0 6.7 6.4 5.7 5.2 5.2 5.1 5.3 6.2 5.4 4.8 4.9 5.3
6.8 6.5 5.5 6.8 7.0 6.8 7.2 7.0 6.8 7.3 8.2 9.0 8.9 8.8 8.6 8.0 7.5 6.5 6.0 5.2 4.2 5.7 6.1 5.7 5.2 4.9 4.9 4.8 5.3 4.9 5.5 6.1 5.8
6.6 6.8 6.0 6.5 6.7 5.3 5.1 5.5 6.1 6.7 7.7 7.7 8.4 7.6 8.4 7.9 7.4 6.8 6.6 6.4 4.7 5.6 6.3 6.3 5.8 5.8 6.1 5.7 5.8 6.5 6.6 6.9 6.4
6.2 6.2 6.7 6.4 6.0 6.0 5.5 5.3 5.4 6.6 6.8 7.1 7.3 6.7 7.4 7.3 7.0 6.8 6.9 6.4 6.4 6.7 6.9 6.7 6.6 6.1 5.8 5.1 6.2 5.1 5.2 6.7 7.5
6.3 6.4 6.4 6.3 6.6 6.3 6.4 6.2 5.0 6.3 6.4 6.7 6.5 5.7 6.5 6.2 6.2 6.3 6.2 6.3 6.8 6.6 6.5 6.2 6.4 5.8 4.8 5.1 6.9 3.6 3.6 5.0 7.1
5.4 6.4 6.4 5.9 7.0 6.7 6.3 8.0 8.1 7.2 7.3 5.8 5.6 5.2 5.7 5.9 5.8 5.8 5.7 6.1 6.4 6.1 5.8 6.0 6.3 6.5 5.9 6.6 6.5 2.7 2.1 3.8 5.2
6.6 6.5 6.5 6.1 6.8 6.9 4.8 7.0 6.6 6.4 7.0 6.4 5.8 5.9 5.6 6.2 6.3 6.3 5.7 5.8 5.3 5.4 5.8 5.4 6.0 6.4 6.9 7.1 7.4 2.0 1.8 2.6 4.8
7.5 7.4 7.5 6.7 6.6 6.5 5.4 6.2 7.4 6.4 6.8 6.9 6.4 5.9 6.1 6.5 5.6 5.0 4.0 4.1 4.1 4.8 5.8 6.8 7.4 7.0 6.9 6.4 7.5 1.6 0.7 3.0 7.2
6.4 6.9 6.7 6.8 6.6 6.0 5.2 5.9 7.3 6.2 6.7 7.1 7.2 6.8 7.3 6.9 5.8 4.6 3.0 3.2 4.3 5.7 6.9 7.1 6.5 5.9 6.4 6.3 6.8 4.7 0.4 1.0 7.1
6.4 7.7 7.8 7.8 6.6 5.5 6.0 6.8 6.0 6.4 6.5 7.2 7.0 7.1 7.8 6.8 4.9 4.7 5.2 5.3 6.5 6.4 6.6 6.3 6.1 6.4 6.2 6.4 6.8 3.5 -0.1 -0.0 1.4
7.8 8.0 7.7 8.2 7.5 7.4 7.4 5.8 6.0 6.5 6.3 6.9 7.0 7.1 6.9 6.2 4.7 4.6 5.7 6.0 5.8 6.4 6.7 7.4 7.0 6.8 6.3 6.2 6.1 4.2 1.1 -1.0 -1.2
7.7 7.8 7.2 7.3 7.4 6.9 6.8 6.5 7.1 7.0 6.9 6.8 6.8 6.5 5.3 4.6 5.5 6.6 6.5 6.3 6.7 7.8 7.7 7.8 6.8 7.1 6.2 7.1 6.2 5.9 3.2 2.8 0.7
6.9 6.4 6.0 7.0 7.3 7.3 7.4 7.2 7.2 7.7 7.5 6.8 5.4 4.7 4.8 5.5 5.9 6.3 6.0 3.6 3.8 7.6 1.8 2.2 7.4 6.9 6.0 7.2 6.8 5.8 5.2 5.4 5.7
5.4 5.8 6.3 6.5 7.8 7.5 6.6 6.6 7.3 7.6 6.4 5.7 5.1 6.3 6.6 6.6 6.0 6.0 5.5 4.6 3.5 -4.5 -4.3 -5.0 -4.5 -2.7 2.7 0.1 -2.9 -3.0 -3.1 -3.3 -3.1
3.4 5.6 7.7 8.2 8.3 8.4 8.2 7.9 7.7 7.7 7.0 6.2 5.5 6.0 6.0 5.5 5.5 6.4 7.0 6.7 6.4 4.4 -0.9 -4.8 -5.5 -5.6 -4.7 -0.0 -3.6 -4.9 -4.9 -4.9 -4.2
Wind_Speed
25 24 21 22 24 22 22 23 19 20 21 20 19 18 17 14 14 9 8 9 6 7 5 5 13 9 10 9 9 5 5 5 4
18 24 23 23 23 22 21 21 21 20 20 21 20 19 16 16 14 13 11 10 8 6 6 6 13 12 10 9 8 7 7 4 6
13 11 21 20 20 22 20 21 20 19 18 21 20 19 17 15 17 16 14 10 10 11 9 8 12 10 10 10 8 8 8 6 5
15 12 20 19 20 20 20 19 20 20 20 20 20 19 18 17 17 18 15 11 11 12 9 11 10 10 11 10 10 10 9 7 8
13 15 14 15 17 20 21 21 21 21 20 20 20 19 18 19 19 17 17 16 13 13 11 11 10 12 11 12 11 10 11 10 8
12 3 13 18 17 19 21 22 21 21 22 21 20 19 20 20 18 18 18 18 16 14 13 13 14 13 13 12 13 13 13 12 10
9 5 11 14 13 18 21 22 21 21 22 22 21 21 22 19 19 20 18 18 18 17 15 15 13 13 14 14 14 14 13 12 10
8 5 9 8 8 11 19 19 21 21 21 21 22 21 21 21 19 19 18 17 18 16 15 14 12 11 12 12 12 10 11 11 10
13 11 9 13 13 9 12 18 21 22 21 22 19 20 22 20 19 18 17 17 15 14 12 12 10 11 12 12 11 14 17 12 10
15 13 12 7 12 13 11 16 21 22 22 20 19 18 19 18 18 18 18 16 14 14 14 11 11 12 13 11 8 5 13 14 9
11 14 17 12 12 12 12 14 19 19 18 16 19 15 18 17 16 18 16 14 14 12 10 11 10 9 10 10 9 11 9 10 6
15 17 12 13 14 11 13 14 14 17 20 19 15 18 18 16 15 16 14 14 12 10 8 8 9 8 11 9 9 14 10 8 5
19 21 16 7 7 12 15 14 15 16 17 19 20 17 15 14 15 15 14 11 9 6 7 9 9 10 10 8 6 13 13 11 7
15 13 11 4 5 10 14 15 16 16 16 18 16 12 13 12 13 12 11 10 7 7 7 5 5 6 6 8 9 7 13 15 9
7 7 3 3 5 8 11 12 13 13 11 9 10 12 12 13 12 9 8 8 5 7 6 6 6 6 5 5 5 7 12 13 13
3 2 4 6 10 8 7 9 12 13 11 12 12 13 13 12 12 9 9 9 9 6 6 7 7 7 5 5 6 6 9 12 6
6 7 9 11 12 11 11 12 12 13 12 13 14 13 13 11 11 9 10 7 8 7 7 6 6 5 5 3 5 6 5 5 5
13 13 14 12 12 11 11 12 13 13 12 12 13 13 11 10 8 9 7 8 3 4 5 2 1 2 5 5 6 8 10 8 6
11 11 11 10 11 10 10 11 10 10 13 12 12 11 10 9 8 7 7 8 7 15 10 7 9 3 2 4 4 10 13 13 11
8 8 9 10 9 10 10 10 8 8 10 12 12 11 10 9 9 8 8 7 8 7 5 9 11 12 10 5 11 12 13 14 12
Wind_Direction
191 192 190 186 187 185 187 188 189 184 182 185 187 188 187 193 199 205 212 217 200 175 181 195 160 172 171 175 172 186 163 162 197
204 191 185 187 186 188 182 186 188 187 180 183 186 187 185 188 192 200 206 207 206 189 195 158 168 180 176 178 171 174 161 196 194
210 204 178 185 185 184 185 183 187 186 185 183 184 186 186 190 192 198 210 201 198 198 185 188 172 178 179 174 179 178 168 190 197
225 216 178 185 181 180 181 179 186 190 188 182 185 186 188 190 195 198 206 212 194 196 200 186 171 178 176 185 186 182 175 211 195
214 230 189 173 179 177 176 184 186 188 189 189 186 185 188 194 198 198 201 210 207 197 190 182 183 179 185 187 189 181 183 206 207
206 149 172 179 183 176 184 185 186 188 190 191 184 187 193 195 196 198 202 205 209 198 195 191 190 185 190 189 189 186 190 199 213
221 201 158 165 193 184 190 187 185 185 189 190 188 189 196 197 198 201 203 203 206 207 201 198 194 194 193 190 190 194 195 201 206
229 210 155 176 195 192 189 183 184 183 187 189 190 191 194 199 200 203 202 205 208 205 201 202 196 191 194 194 202 199 193 199 206
210 219 228 192 192 198 181 180 184 189 187 186 190 191 195 197 199 198 202 206 206 202 197 198 187 191 188 195 201 195 195 202 202
201 201 225 216 193 198 206 183 183 186 191 182 189 190 192 195 193 195 197 199 197 196 195 184 194 195 201 202 218 180 183 187 196
275 218 208 225 251 190 192 201 178 184 182 187 186 181 188 193 191 189 189 192 193 184 185 196 201 198 192 200 198 184 181 181 198
250 253 246 207 221 227 181 190 182 174 181 186 178 188 185 190 181 175 179 182 176 182 185 197 213 206 182 190 203 171 193 187 206
251 243 245 288 261 203 167 176 176 176 180 185 192 184 182 166 159 164 164 166 168 169 195 216 213 195 170 198 183 191 177 185 201
351 232 224 181 228 166 164 169 168 177 178 188 189 162 164 151 148 148 150 151 159 181 203 194 157 136 161 205 210 177 187 193 215
360 319 318 176 129 138 150 160 149 155 158 154 146 143 149 134 134 134 129 136 173 158 151 135 148 165 184 198 201 218 193 192 213
121 339 82 133 109 114 114 104 130 133 129 133 136 138 136 130 132 138 149 139 147 153 167 178 181 187 194 208 201 134 174 194 190
131 116 86 91 101 101 102 107 115 118 127 131 135 127 124 122 133 145 147 148 159 171 174 183 191 172 192 204 148 160 161 174 176
67 74 75 80 90 91 104 102 106 110 116 118 117 117 119 125 129 138 139 77 54 150 51 1 175 180 195 198 183 183 179 169 180
54 55 69 81 87 92 100 101 105 121 120 124 126 131 144 150 143 144 130 126 94 40 62 62 61 41 152 74 55 130 133 125 118
28 57 80 101 107 114 117 107 109 114 119 131 141 147 142 144 148 162 149 151 152 135 72 67 60 55 51 118 134 115 118 114 100